Location: Saint-Palais-sur-Mer
(45.6429°N, 1.0859°W)
Time: 09:36:54
(UTC+02:00)

TIGRISAT - Pass Details

Date: 25 April 2024
Orbit: 594 x 672 km, 97.7° (Epoch: 21 May)

Event Time Altitude Azimuth Distance (km) Brightness Sun altitude
Rises 05:52:10 0° 163° (SSE) 2,925 ? -11.6°
Reaches altitude 10° 05:54:23 10° 162° (SSE) 2,009 ? -11.3°
Maximum altitude 05:58:45 82° 75° (ENE) 634 ? -10.6°
Drops below altitude 10° 06:03:03 10° 349° (N) 1,977 ? -10.0°
Sets 06:05:13 0° 349° (NNW) 2,876 ? -9.7°
